Location: Complexul Astronomic Baia Mare
(47.6577°N, 23.5639°E)
Time: 13:25:54
(UTC+03:00)

ISS - Pass Details

Date: 03 June 2017
Orbit: 401 x 408 km, 51.6° (Epoch: 23 June)

Event Time Altitude Azimuth Distance (km) Brightness Sun altitude
Rises 23:50:24 0° 293° (WNW) 2,340 0.8 -16.8°
Reaches altitude 10° 23:52:30 10° 291° (WNW) 1,475 -0.4 -17.0°
Maximum altitude 23:55:47 67° 208° (SSW) 445 -3.9 -17.2°
Enters shadow 23:56:19 54° 154° (SSE) 500 -3.8 -17.2°
